This is the latest recevied weather packets stored in our database for station/object IU1WWE-10. If no packets are shown the sender has not sent any weather packets the latest 10 day(s).
| Time | Temp. | Humidity | Pressure | Rain* | Wind** | Luminosity | Snow |
|---|---|---|---|---|---|---|---|
| 1787925418 | 19.44° C | 91% | 1016.4 hPa | 6.6 mm | - | - | - |
| 1787925116 | 19.44° C | 92% | 1016.4 hPa | 6.6 mm | - | - | - |
| 1787924815 | 19.44° C | 92% | 1016.2 hPa | 6.6 mm | - | - | - |
| 1787924512 | 19.44° C | 95% | 1016.3 hPa | 6.6 mm | - | - | - |
| 1787924210 | 19.44° C | 95% | 1016.6 hPa | 6.6 mm | - | - | - |
| 1787923908 | 18.89° C | 94% | 1016.9 hPa | 6.6 mm | - | - | - |
| 1787923606 | 18.89° C | 92% | 1016.9 hPa | 6.6 mm | - | - | - |
| 1787923304 | 18.89° C | 92% | 1017 hPa | 6.6 mm | - | - | - |
| 1787923002 | 19.44° C | 91% | 1016.9 hPa | 6.6 mm | - | - | - |
| 1787922700 | 19.44° C | 92% | 1017 hPa | 6.6 mm | - | - | - |
| 1787922398 | 19.44° C | 91% | 1017.2 hPa | 6.6 mm | - | - | - |
| 1787922096 | 19.44° C | 92% | 1017.1 hPa | 6.6 mm | - | - | - |
| 1787921794 | 19.44° C | 91% | 1017.2 hPa | 6.6 mm | - | - | - |
| 1787921492 | 20° C | 91% | 1017.3 hPa | 6.6 mm | - | - | - |
| 1787921190 | 20° C | 90% | 1017.2 hPa | 6.6 mm | - | - | - |
| 1787920887 | 20° C | 91% | 1017.2 hPa | 6.6 mm | - | - | - |
| 1787920585 | 20° C | 91% | 1017.3 hPa | 6.6 mm | - | - | - |
| 1787920283 | 20.56° C | 90% | 1017.3 hPa | 6.6 mm | - | - | - |
| 1787919981 | 20.56° C | 89% | 1017.2 hPa | 6.6 mm | - | - | - |
| 1787919679 | 20.56° C | 89% | 1017.1 hPa | 6.6 mm | - | - | - |
| 1787919377 | 20.56° C | 91% | 1017.4 hPa | 6.6 mm | - | - | - |
| 1787919075 | 20° C | 88% | 1017.5 hPa | 6.6 mm | - | - | - |
| 1787918772 | 20.56° C | 90% | 1017.6 hPa | 6.6 mm | - | - | - |
| 1787918470 | 20° C | 87% | 1017.5 hPa | 6.6 mm | - | - | - |
| 1787918168 | 20° C | 90% | 1017.5 hPa | 6.6 mm | - | - | - |
* Rain since midnight (hover to see other rain measurements)
** Current wind speed in m/s (hover to see current wind gust speed)